This is the latest recevied weather packets stored in our database for station/object K5KVN. If no packets are shown the sender has not sent any weather packets the latest 10 day(s).
| Time | Temp. | Humidity | Pressure | Rain* | Wind** | Luminosity | Snow |
|---|---|---|---|---|---|---|---|
| 1787881107 | 26.67° C | 53% | 1017 hPa | 0 mm | - | - | - |
| 1787880507 | 27.22° C | 49% | 1017 hPa | 0 mm | - | - | - |
| 1787879905 | 27.78° C | 49% | 1017 hPa | 0 mm | - | - | - |
| 1787879307 | 28.33° C | 46% | 1016.9 hPa | 0 mm | - | - | - |
| 1787878705 | 29.44° C | 45% | 1016.8 hPa | 0 mm | - | - | - |
| 1787878105 | 30° C | 44% | 1016.7 hPa | 0 mm | - | - | - |
| 1787877565 | 30.56° C | 43% | 1016.6 hPa | 0 mm | - | - | - |
| 1787876905 | 31.11° C | 42% | 1016.6 hPa | 0 mm | - | - | - |
| 1787876307 | 31.67° C | 42% | 1016.6 hPa | 0 mm | - | - | - |
| 1787875764 | 31.67° C | 41% | 1016.7 hPa | 0 mm | - | - | - |
| 1787875103 | 31.67° C | 41% | 1016.6 hPa | 0 mm | - | - | - |
| 1787874503 | 32.22° C | 42% | 1016.7 hPa | 0 mm | - | - | - |
| 1787873904 | 32.22° C | 41% | 1016.8 hPa | 0 mm | - | - | - |
| 1787873301 | 32.22° C | 39% | 1016.7 hPa | 0 mm | - | - | - |
| 1787872699 | 32.78° C | 38% | 1016.8 hPa | 0 mm | - | - | - |
| 1787872099 | 32.78° C | 39% | 1016.8 hPa | 0 mm | - | - | - |
| 1787871560 | 32.78° C | 39% | 1016.9 hPa | 0 mm | - | - | - |
| 1787870953 | 32.78° C | 38% | 1017 hPa | 0 mm | - | - | - |
| 1787870291 | 33.33° C | 40% | 1017 hPa | 0 mm | - | - | - |
| 1787869691 | 33.33° C | 41% | 1016.9 hPa | 0 mm | - | - | - |
| 1787869150 | 33.33° C | 42% | 1017 hPa | 0 mm | - | - | - |
| 1787868489 | 33.33° C | 43% | 1017 hPa | 0 mm | - | - | - |
| 1787867887 | 33.33° C | 44% | 1016.9 hPa | 0 mm | - | - | - |
| 1787867286 | 33.89° C | 44% | 1017 hPa | 0 mm | - | - | - |
| 1787866746 | 33.89° C | 42% | 1017 hPa | 0 mm | - | - | - |
* Rain latest hour (hover to see other rain measurements)
** Current wind speed in m/s (hover to see current wind gust speed)